GW3602 Weather Reports


Display with metric or nautical units.
time (UTC)temp
F
wind
direction
speed
MPH
gust
MPH
rain 1hr
in
rain 24hr
in
rain mn
in
humidity
%
barometer
mb
20260505034509 64 129 2.0 7.0 0.00 0.00 0.00 62 1005.4
20260505033012 64 148 2.0 6.0 0.00 0.00 0.00 62 1005.6
20260505031517 65 224 3.0 9.0 0.00 0.00 0.00 61 1005.5
20260505030004 65 158 2.0 9.0 0.00 0.00 0.00 61 1005.5
20260505024505 65 248 2.0 9.0 0.00 0.00 0.00 61 1005.4
20260505023011 65 171 3.0 8.0 0.00 0.00 0.00 60 1005.5
20260505021516 65 138 2.0 6.0 0.00 0.00 0.00 59 1005.6
20260505020020 66 253 2.0 9.0 0.00 0.00 0.00 58 1005.8
20260505014504 66 87 3.0 9.0 0.00 0.00 0.00 57 1005.6
20260505013008 66 200 3.0 10.0 0.00 0.00 0.00 57 1005.5
20260505011514 67 219 2.0 8.0 0.00 0.00 0.00 57 1005.2
20260505010020 67 207 2.0 6.0 0.00 0.00 0.00 57 1004.9
20260505004521 67 174 2.0 6.0 0.00 0.00 0.00 56 1004.7
20260505003006 68 177 1.0 6.0 0.00 0.00 0.00 55 1004.6
20260505001508 69 209 1.0 11.0 0.00 0.00 0.00 54 1004.4
20260505000014 69 219 4.0 9.0 0.00 0.00 0.00 52 1004.0
20260504234518 71 40 2.0 9.0 0.00 0.00 0.00 51 1003.9
20260504233027 71 41 2.0 12.0 0.00 0.00 0.00 52 1003.7
20260504231504 71 177 5.0 11.0 0.00 0.00 0.00 52 1003.7
20260504230010 70 231 3.0 13.0 0.00 0.00 0.00 53 1004.2
20260504224516 71 134 4.0 11.0 0.00 0.00 0.00 52 1004.2
20260504223022 71 188 3.0 13.0 0.00 0.00 0.00 53 1004.4
20260504221523 69 171 5.0 11.0 0.00 0.00 0.00 55 1004.4
20260504220009 71 281 5.0 11.0 0.00 0.00 0.00 52 1004.6
20260504214510 72 332 5.0 14.0 0.00 0.00 0.00 49 1004.6
20260504213021 72 297 2.0 16.0 0.00 0.00 0.00 50 1004.6
20260504211523 73 146 3.0 12.0 0.00 0.00 0.00 50 1004.9
20260504210036 73 265 4.0 11.0 0.00 0.00 0.00 48 1005.0
20260504204532 72 266 4.0 13.0 0.00 0.00 0.00 46 1005.1
20260504203023 72 163 3.0 13.0 0.00 0.00 0.00 44 1005.1
20260504201517 72 179 5.0 13.0 0.00 0.00 0.00 48 1005.2
20260504200023 72 120 2.0 13.0 0.00 0.00 0.00 48 1005.3
20260504194527 72 129 5.0 13.0 0.00 0.00 0.00 47 1005.4
20260504193026 71 221 4.0 12.0 0.00 0.00 0.00 52 1005.7
20260504191518 70 176 6.0 14.0 0.00 0.00 0.00 49 1006.2
20260504190022 71 106 1.0 10.0 0.00 0.00 0.00 50 1006.4
20260504184527 70 221 5.0 17.0 0.00 0.00 0.00 47 1006.7
20260504183026 71 137 3.0 11.0 0.00 0.00 0.00 47 1006.7
20260504181514 71 191 3.0 9.0 0.00 0.00 0.00 48 1006.7
20260504180019 70 253 2.0 8.0 0.00 0.00 0.00 45 1006.8
20260504174506 69 330 3.0 12.0 0.00 0.00 0.00 50 1007.0
20260504173003 69 175 4.0 9.0 0.00 0.00 0.00 47 1007.1
20260504171509 69 226 3.0 7.0 0.00 0.00 0.00 47 1007.2
20260504081507 49 143 2.0 9.0 0.00 0.00 0.00 61 1009.4
20260504050025 49 186 1.0 6.0 0.00 0.00 0.00 62 1011.6
20260504044527 50 153 3.0 8.0 0.00 0.00 0.00 61 1011.6
20260504043016 50 135 2.0 7.0 0.00 0.00 0.00 60 1011.7
20260504041535 50 145 2.0 4.0 0.00 0.00 0.00 60 1011.8
20260504040025 50 174 0.0 3.0 0.00 0.00 0.00 60 1011.9